[[{"header":{"parameterUnit":"m.s-1","parameterCategory":1,"la1":30.2991,"la2":30.254,"lo1":-89.0895,"lo2":-89.0444,"dy":0.0017,"dx":0.0017,"nx":28,"ny":28,"refTime":"2025-04-07T03:00:00:Z","depth":0,"parameterNumber":2,"parameterNumberName":"U-component_of_WINDS"},"data":[0,0,0,0,0,0,0,0,0,0,0,0,0,0,0,0,0,0,0,0,0,0,0,0,0,0,0,0,0,0,0,0,0,0,0,0,0,0,0,0,0,0,0,0,0,0,0,0,0,0,0,0,0,0,0,0,0,0,2.0617,2.0617,0,2.064,2.064,2.0641,2.0621,2.062,2.0619,2.0619,2.0642,2.0643,2.0645,0,0,0,0,0,0,0,0,0,0,0,0,0,2.0555,2.0556,2.0616,2.0617,2.0617,2.064,2.064,2.0641,2.0621,2.062,2.0619,2.0618,2.0641,2.0643,2.0645,0,0,0,0,0,0,0,0,0,0,0,0,0,2.058,2.0556,2.0616,2.061,2.061,2.064,2.064,2.0641,2.0621,2.062,2.0619,2.0618,2.0641,2.0643,2.0645,2.0682,0,0,2.0651,2.0652,0,0,0,0,0,0,0,0,2.0579,2.0583,2.0611,2.0611,2.061,2.0626,2.0627,2.0655,2.0622,2.0617,2.0619,2.0617,2.0638,2.064,2.0647,2.0683,2.0684,2.0651,2.0653,2.0654,2.0654,0,0,0,0,0,0,0,2.0577,2.0581,2.0626,2.0611,2.0611,2.0606,2.0608,2.0632,2.0634,2.0617,2.0616,2.0619,2.0637,2.0645,2.0647,2.0685,2.0651,2.0653,2.0654,2.0655,2.0753,2.0755,0,0,0,0,0,0,2.0576,2.058,2.0625,2.0626,2.0591,2.0608,2.0611,2.0622,2.0634,2.0634,2.062,2.0618,2.0642,2.0645,2.0648,2.0693,2.0654,2.0655,2.0657,2.0752,2.0754,2.0755,0,0,0,0,0,0,2.0575,2.058,2.0624,2.0603,2.0608,2.0611,2.0624,2.0624,2.0631,2.0636,2.0636,2.0628,2.0641,2.0645,2.0674,2.0693,2.0656,2.0658,2.0751,2.0753,2.0755,2.0782,0,0,0,0,0,0,2.0573,2.058,2.0594,2.0603,2.0609,2.065,2.0625,2.0625,2.0635,2.0633,2.0643,2.0643,2.0641,2.0671,2.0676,2.0695,2.066,2.0749,2.0751,2.0754,2.078,2.0785,2.079,0,0,0,0,0,2.0571,2.06,2.0595,2.06,2.0627,2.0651,2.0654,2.0651,2.0637,2.0651,2.0654,2.0643,2.0691,2.0674,2.068,2.07,2.0748,2.0751,2.0754,2.0777,2.0784,2.0789,0,0,0,0,0,0,2.0592,2.0601,2.0595,2.0629,2.0639,2.0647,2.0665,2.0658,2.0672,2.0669,2.0664,2.0667,2.0697,2.0701,2.0683,2.0737,2.0717,2.0721,2.0733,2.0739,2.0744,2.0742,2.0662,0,0,0,0,0,2.0601,2.062,2.0627,2.0656,2.0661,2.0663,2.0673,2.0669,2.068,2.0684,2.0689,2.07,2.0717,2.0728,2.0745,2.078,2.0783,2.0797,2.0802,2.0806,2.081,2.083,2.0836,2.0765,2.0765,2.0765,0,0,2.0619,2.0627,2.0639,2.066,2.0668,2.0687,2.0666,2.0688,2.0702,2.0687,2.0715,2.0719,2.0731,2.0763,2.0778,2.0768,2.083,2.081,2.0813,2.0815,2.0834,2.084,2.0846,2.0767,2.0767,2.0767,0,0,2.0662,2.067,2.0695,2.0703,2.0715,2.0716,2.0722,2.0732,2.0734,2.0762,2.0752,2.0769,2.0799,2.0808,2.0816,2.0864,2.0855,2.0869,2.0895,2.0915,2.092,2.0925,2.0942,2.0948,2.0873,2.0873,2.0873,0,2.0683,2.0712,2.0708,2.0731,2.0741,2.0729,2.0755,2.0763,2.078,2.0787,2.0776,2.0814,2.0821,2.0855,2.0867,2.0874,2.0881,2.0868,2.092,2.0925,2.0929,2.0945,2.0952,2.0875,2.0875,2.0874,2.0874,0,2.0737,2.0757,2.0776,2.0793,2.0806,2.0829,2.083,2.0843,2.0839,2.0841,2.087,2.0878,2.0896,2.0904,2.09,2.0939,2.0932,2.092,2.09,2.0938,2.0953,2.0959,2.0877,2.0877,2.0876,2.0876,0,0,2.0793,2.0809,2.0816,2.0824,2.0837,2.0853,2.0876,2.0894,2.0906,2.0918,2.0938,2.0964,2.0954,2.0963,2.096,2.0978,2.1015,2.0964,2.0964,2.0973,2.1059,2.1067,2.1075,2.101,2.1011,2.1012,2.1058,0,2.0836,2.0877,2.0876,2.0914,2.0933,2.0923,2.0944,2.0954,2.0957,2.0974,2.0977,2.0996,2.0981,2.0987,2.1003,2.1007,2.1032,2.1004,2.1028,2.1029,2.1025,2.1082,2.1091,2.1134,2.1064,2.1065,2.1066,0,2.0892,2.0907,2.0948,2.0959,2.0967,2.0985,2.1002,2.1018,2.103,2.1031,2.1043,2.1037,2.1062,2.1041,2.1075,2.1056,2.1065,2.1069,2.1071,2.1072,2.1049,2.1085,2.1148,2.1154,2.1075,2.1074,2.1074,0,2.0928,2.0959,2.0987,2.0994,2.1008,2.1022,2.1028,2.1039,2.105,2.1065,2.1073,2.109,2.1099,2.1113,2.1113,2.1098,2.1147,2.1126,2.1148,2.1148,2.1158,2.1158,2.1223,2.1166,2.1166,2.1165,2.1165,0,2.0977,2.1002,2.1004,2.1021,2.105,2.1048,2.1076,2.1081,2.1091,2.1109,2.1102,2.1119,2.1118,2.1135,2.1135,2.1163,2.1168,2.1169,2.1169,2.117,2.117,2.1176,2.1173,2.1167,2.1167,2.1166,2.1166,0,2.1022,2.1024,2.1055,2.1066,2.1069,2.109,2.1099,2.1116,2.1119,2.1142,2.1148,2.1152,2.1173,2.1174,2.1198,2.1198,2.1232,2.1228,2.1228,2.1227,2.1249,2.1247,2.132,2.133,2.1266,2.1267,2.1267,0,2.1052,2.1072,2.1085,2.1097,2.1105,2.1124,2.1136,2.1135,2.1148,2.1163,2.1178,2.1198,2.1214,2.1248,2.1253,2.1271,2.1268,2.1293,2.1271,2.1271,2.1268,2.1267,2.1269,2.1297,2.1297,2.1298,2.1298,0,2.1106,2.1107,2.1124,2.1142,2.1157,2.1171,2.1184,2.1194,2.1195,2.121,2.1231,2.1243,2.1268,2.1288,2.1306,2.1313,2.1306,2.1305,2.1312,2.1312,2.1311,2.1312,2.1239,2.1303,2.1303,2.1303,2.1302,2.1302,2.1145,2.1162,2.1174,2.1194,2.1204,2.1217,2.1234,2.1239,2.1257,2.1277,2.1275,2.1299,2.1312,2.1335,2.1344,2.1362,2.1354,2.1363,2.1365,2.1367,2.1369,2.1309,2.1365,2.1365,2.1365,2.1365,2.1365,0,2.1198,2.1206,2.1225,2.1244,2.1259,2.1252,2.1267,2.128,2.1301,2.1314,2.133,2.1355,2.1374,2.1382,2.1401,2.1415,2.1412,2.142,2.1419,2.142,2.1375,2.1368,2.1422,2.1422,2.1422,2.1422,2.1422,2.1422,2.1228,2.1256,2.1259,2.1292,2.13,2.1323,2.1332,2.1344,2.1354,2.1382,2.1399,2.1404,2.1414,2.1435,2.1453,2.1454,2.1462,2.1471,2.1471,2.1429,2.1423,2.1418,2.1411,2.1473,2.1473,2.1514,2.1515,2.1515]},{"header":{"parameterUnit":"m.s-1","parameterCategory":1,"la1":30.2991,"la2":30.254,"lo1":-89.0895,"lo2":-89.0444,"dy":0.0017,"dx":0.0017,"nx":28,"ny":28,"refTime":"2025-04-07T03:00:00:Z","depth":0,"parameterNumber":3,"parameterNumberName":"V-component_of_WINDS"},"data":[0,0,0,0,0,0,0,0,0,0,0,0,0,0,0,0,0,0,0,0,0,0,0,0,0,0,0,0,0,0,0,0,0,0,0,0,0,0,0,0,0,0,0,0,0,0,0,0,0,0,0,0,0,0,0,0,0,0,-6.8779,-6.8781,0,-6.8949,-6.8951,-6.8953,-6.8919,-6.8915,-6.8912,-6.8909,-6.9082,-6.9089,-6.9096,0,0,0,0,0,0,0,0,0,0,0,0,0,-6.8421,-6.8427,-6.8779,-6.8781,-6.8783,-6.8949,-6.8951,-6.8954,-6.8919,-6.8915,-6.8912,-6.8908,-6.9079,-6.9088,-6.9097,0,0,0,0,0,0,0,0,0,0,0,0,0,-6.8582,-6.843,-6.8778,-6.8786,-6.8788,-6.8948,-6.8951,-6.8954,-6.892,-6.8915,-6.8911,-6.8906,-6.9076,-6.9087,-6.9098,-6.9261,0,0,-6.9132,-6.9137,0,0,0,0,0,0,0,0,-6.8573,-6.8595,-6.8783,-6.8786,-6.8788,-6.8908,-6.8888,-6.9057,-6.8921,-6.887,-6.8909,-6.8904,-6.9027,-6.9042,-6.9084,-6.9269,-6.9276,-6.9133,-6.914,-6.9145,-6.9148,0,0,0,0,0,0,0,-6.8562,-6.8588,-6.8846,-6.8785,-6.8789,-6.878,-6.8798,-6.892,-6.8973,-6.8874,-6.8872,-6.8893,-6.9028,-6.9074,-6.9088,-6.9279,-6.9133,-6.9143,-6.915,-6.9154,-6.9605,-6.961,0,0,0,0,0,0,-6.8548,-6.8579,-6.8841,-6.8851,-6.8667,-6.879,-6.881,-6.8874,-6.8971,-6.8982,-6.8896,-6.889,-6.9057,-6.9075,-6.9094,-6.9291,-6.9145,-6.9155,-6.9162,-6.96,-6.9606,-6.9612,0,0,0,0,0,0,-6.8541,-6.8572,-6.8834,-6.8714,-6.8747,-6.8801,-6.8874,-6.888,-6.8926,-6.8988,-6.8997,-6.8934,-6.9054,-6.9078,-6.922,-6.9296,-6.916,-6.9171,-6.9593,-6.9602,-6.9609,-6.9686,0,0,0,0,0,0,-6.8531,-6.8569,-6.8632,-6.8716,-6.8754,-6.8958,-6.8878,-6.8887,-6.8945,-6.8939,-6.9026,-6.9035,-6.9052,-6.9203,-6.9231,-6.9309,-6.9179,-6.9587,-6.9597,-6.9606,-6.9677,-6.9695,-6.9711,0,0,0,0,0,-6.8518,-6.8647,-6.8636,-6.8668,-6.8834,-6.8962,-6.8983,-6.9001,-6.8952,-6.9015,-6.9055,-6.9033,-6.9284,-6.9218,-6.9249,-6.9332,-6.9582,-6.9594,-6.9605,-6.9669,-6.9692,-6.9711,0,0,0,0,0,0,-6.857,-6.8658,-6.8647,-6.8807,-6.8877,-6.8956,-6.9036,-6.9024,-6.911,-6.91,-6.9117,-6.9137,-6.9281,-6.932,-6.9246,-6.9494,-6.9426,-6.9444,-6.9463,-6.9485,-6.9502,-6.949,-6.9189,0,0,0,0,0,-6.86,-6.8698,-6.8769,-6.8904,-6.894,-6.8982,-6.9039,-6.9046,-6.9119,-6.9149,-6.9199,-6.9271,-6.9365,-6.9428,-6.9518,-6.9682,-6.97,-6.9754,-6.9772,-6.9786,-6.9801,-6.9891,-6.9915,-6.965,-6.965,-6.965,0,0,-6.8664,-6.8724,-6.8784,-6.8916,-6.8971,-6.9071,-6.9007,-6.9116,-6.919,-6.9165,-6.9302,-6.9341,-6.9422,-6.9575,-6.9645,-6.9613,-6.9879,-6.9801,-6.9811,-6.982,-6.9905,-6.993,-6.9953,-6.9658,-6.9657,-6.9655,0,0,-6.883,-6.8886,-6.9004,-6.9061,-6.9146,-6.9173,-6.9202,-6.9283,-6.9308,-6.9446,-6.9429,-6.9517,-6.968,-6.9738,-6.9789,-6.9978,-6.996,-7.0007,-7.0097,-7.0184,-7.0205,-7.0223,-7.029,-7.0314,-7.0022,-7.0022,-7.0022,0,-6.8898,-6.9049,-6.9066,-6.9176,-6.9234,-6.9217,-6.9336,-6.939,-6.95,-6.954,-6.9502,-6.9707,-6.976,-6.9927,-6.9973,-7.0015,-7.0047,-6.9997,-7.0201,-7.0219,-7.0237,-7.0301,-7.0326,-7.0027,-7.0027,-7.0026,-7.0026,0,-6.9128,-6.9233,-6.9318,-6.9425,-6.9493,-6.9607,-6.964,-6.9707,-6.9708,-6.9739,-6.9879,-6.9943,-7.0046,-7.0086,-7.0088,-7.0253,-7.023,-7.0196,-7.0128,-7.0267,-7.0328,-7.0352,-7.0035,-7.0033,-7.0031,-7.003,0,0,-6.9332,-6.9448,-6.9479,-6.9527,-6.962,-6.9701,-6.9814,-6.9916,-6.9972,-7.0048,-7.0143,-7.0282,-7.0251,-7.0309,-7.0318,-7.0394,-7.0539,-7.0351,-7.0353,-7.0383,-7.0724,-7.0749,-7.0777,-7.0527,-7.0532,-7.0536,-7.0717,0,-6.9507,-6.9708,-6.9726,-6.9906,-7.0003,-6.9987,-7.0086,-7.0153,-7.0185,-7.0271,-7.0306,-7.0404,-7.0356,-7.0391,-7.0466,-7.0505,-7.0607,-7.0492,-7.0615,-7.0619,-7.0596,-7.0809,-7.0835,-7.1003,-7.0741,-7.0745,-7.0748,0,-6.9738,-6.9822,-7.0012,-7.0091,-7.0132,-7.0221,-7.0315,-7.0398,-7.0473,-7.0491,-7.0556,-7.0554,-7.067,-7.0597,-7.0756,-7.0677,-7.0728,-7.0755,-7.0762,-7.0774,-7.0692,-7.0826,-7.1057,-7.1082,-7.0785,-7.0782,-7.0779,0,-6.9868,-7.0029,-7.0163,-7.0205,-7.03,-7.0363,-7.0405,-7.0476,-7.0536,-7.0618,-7.0657,-7.0752,-7.0803,-7.0876,-7.0899,-7.0844,-7.1057,-7.0986,-7.1075,-7.1074,-7.112,-7.1117,-7.1363,-7.1154,-7.1153,-7.1153,-7.1152,0,-7.0062,-7.0179,-7.0223,-7.0305,-7.0435,-7.0455,-7.0582,-7.0621,-7.0684,-7.0774,-7.0766,-7.0849,-7.0875,-7.0963,-7.0982,-7.1111,-7.1134,-7.1151,-7.1155,-7.1152,-7.115,-7.1186,-7.1174,-7.116,-7.1158,-7.1157,-7.1156,0,-7.0229,-7.0264,-7.0409,-7.0487,-7.051,-7.0602,-7.0669,-7.0748,-7.0778,-7.0891,-7.0919,-7.0967,-7.107,-7.11,-7.1224,-7.1237,-7.1387,-7.138,-7.1362,-7.1363,-7.1449,-7.1441,-7.1726,-7.1765,-7.153,-7.1533,-7.1534,0,-7.0351,-7.044,-7.0528,-7.0588,-7.0633,-7.0729,-7.079,-7.0813,-7.0877,-7.0969,-7.1037,-7.1139,-7.1222,-7.1387,-7.1432,-7.1527,-7.1522,-7.1615,-7.1536,-7.153,-7.1523,-7.1518,-7.1526,-7.163,-7.1633,-7.1635,-7.1636,0,-7.0562,-7.0575,-7.0664,-7.0759,-7.0833,-7.0909,-7.0982,-7.1031,-7.1063,-7.1135,-7.1241,-7.1305,-7.1432,-7.1533,-7.1629,-7.1672,-7.166,-7.1661,-7.1687,-7.1685,-7.1671,-7.1679,-7.1403,-7.1654,-7.1653,-7.1651,-7.165,-7.165,-7.071,-7.0789,-7.0864,-7.0963,-7.102,-7.1089,-7.1167,-7.1207,-7.1296,-7.1402,-7.1409,-7.1523,-7.1596,-7.1723,-7.1771,-7.186,-7.1833,-7.187,-7.1879,-7.1888,-7.1895,-7.1656,-7.1878,-7.1877,-7.1877,-7.1876,-7.1876,0,-7.0922,-7.0969,-7.106,-7.1163,-7.1241,-7.1223,-7.1303,-7.1369,-7.147,-7.1539,-7.1621,-7.1742,-7.184,-7.1893,-7.1991,-7.2052,-7.2049,-7.2077,-7.2072,-7.2082,-7.1914,-7.1882,-7.2078,-7.2078,-7.2078,-7.2077,-7.2077,-7.2077,-7.1041,-7.1173,-7.1194,-7.1354,-7.14,-7.1513,-7.156,-7.1623,-7.1678,-7.1814,-7.1896,-7.193,-7.1992,-7.2094,-7.2183,-7.2196,-7.2232,-7.2263,-7.2273,-7.2115,-7.2094,-7.2074,-7.2045,-7.2271,-7.2271,-7.2434,-7.2436,-7.2437]}]]